Tracking 28096 objects as of 27-Sep-2023
HD Live streaming from Space Station
objects crossing your sky now

LINUSS2

Track LINUSS2 now!


NORAD ID: 55247
Int'l Code: 2022-144H
Perigee: 36,118.4 km
Apogee: 36,161.1 km
Inclination: 2.9 °
Period: 1,453.8 minutes
Semi major axis: 42510 km
RCS: Unknown
Launch date: November 1, 2022
Source: United States (US)
Launch site: AIR FORCE EASTERN TEST RANGE (AFETR)
Your satellite tracking list
Your tracking list is empty




NASA's NSSDC Master Catalog

Two Line Element Set (TLE):
1 55247U 22144H   23268.90743977 -.00000097  00000-0  00000-0 0  9990
2 55247   2.9452  67.3834 0005027 307.4289 238.2874  0.99050153  1855
Source of the keplerian elements: AFSPC